Date,TemperatureHighF,TemperatureAvgF,TemperatureLowF,DewpointHighF,DewpointAvgF,DewpointLowF,HumidityHigh,HumidityAvg,HumidityLow,PressureMaxIn,PressureMinIn,WindSpeedMaxMPH,WindSpeedAvgMPH,GustSpeedMaxMPH,PrecipitationSumIn
2012-6-30,90,83,72,77,72,69,95,72,51,29.97,29.91,12,3,13,0.00
2012-7-5,93,82,71,75,72,68,93,73,47,30.04,29.93,7,1,14,0.02
2012-7-6,92,81,73,75,72,68,94,74,49,30.02,29.95,7,1,17,0.01
2012-7-7,94,83,73,75,72,68,91,71,43,30.04,29.97,7,1,11,0.01
2012-7-8,96,83,73,76,72,67,92,70,42,30.06,29.95,8,1,16,0.00
2012-7-9,93,82,74,78,73,70,93,77,49,30.01,29.91,12,1,15,0.77
2012-7-10,92,78,71,75,71,68,93,82,51,30.01,29.92,15,1,32,0.80
2012-7-11,90,77,72,78,72,70,96,87,52,30.01,29.92,12,1,19,0.91
2012-7-12,90,79,72,77,72,68,97,81,50,30.00,29.91,7,1,10,0.03
2012-7-13,91,79,74,79,73,70,94,83,54,30.03,29.94,13,2,19,1.12
2012-7-14,91,80,74,77,73,71,97,81,56,30.05,29.96,15,3,18,0.79
2012-7-15,92,78,73,76,72,69,96,84,50,30.08,29.99,8,2,16,1.27
2012-7-16,87,78,72,77,73,71,97,85,66,30.05,29.92,10,2,15,0.18
2012-7-17,85,78,73,76,73,71,96,86,71,30.01,29.92,10,2,13,0.52
2012-7-18,90,81,73,77,73,71,93,79,58,30.08,29.95,10,1,12,0.01
2012-7-19,93,83,75,79,75,72,95,78,53,30.13,30.06,11,2,12,0.01
2012-7-20,94,84,75,78,74,64,94,74,38,30.09,29.99,8,2,14,0.00
2012-7-21,95,82,72,78,73,68,94,76,43,30.07,29.97,15,2,32,1.09
2012-7-22,91,77,73,79,73,70,97,89,58,30.11,29.97,13,3,15,1.39
2012-7-23,87,78,72,77,73,70,97,86,68,30.11,30.04,11,3,19,0.06
2012-7-24,91,81,74,78,74,71,95,79,56,30.11,30.00,10,2,15,0.00
2012-7-25,90,85,79,75,74,73,83,70,57,30.01,29.98,7,3,13,0.00
2012-7-26,93,83,74,78,73,70,94,75,49,30.03,29.96,7,2,10,0.00
2012-7-27,93,83,74,78,73,69,95,73,48,30.08,29.98,8,2,11,0.00
2012-7-28,94,83,75,78,74,71,94,75,50,30.09,30.01,8,1,11,0.00
2012-7-29,94,83,75,78,73,69,95,73,47,30.07,29.98,6,1,11,0.00
2012-7-30,93,82,74,77,72,66,94,74,43,30.03,29.98,9,2,12,0.00
2012-7-31,93,83,73,76,72,67,93,73,43,30.03,29.96,8,2,13,0.00
2012-8-1,90,82,74,78,74,72,94,79,60,30.01,29.92,9,2,12,0.11
2012-8-2,93,83,74,78,73,71,95,74,51,30.00,29.91,8,2,11,0.09
2012-8-3,94,80,73,77,72,68,95,78,46,30.02,29.92,13,2,17,0.01
2012-8-4,95,82,72,79,72,69,96,73,46,30.03,29.94,7,2,12,0.01
2012-8-5,93,81,74,77,73,71,92,77,51,30.07,29.98,10,2,14,0.00
2012-8-6,93,79,74,78,74,71,95,85,56,30.07,29.95,12,3,15,1.42
2012-8-7,90,80,73,79,74,70,97,82,59,30.02,29.94,8,1,10,0.31
2012-8-8,94,84,76,76,73,67,89,73,42,30.03,29.96,7,1,10,0.00
2012-8-9,94,84,74,76,72,66,90,69,44,30.01,29.89,8,2,11,0.00
2012-8-10,93,81,75,77,72,69,93,76,51,29.98,29.90,9,1,16,0.09
2012-8-11,93,82,73,77,73,70,93,76,56,30.01,29.91,9,2,13,0.01
2012-8-12,88,79,74,78,72,-100,94,81,59,30.03,29.95,12,1,16,0.37
2012-8-16,90,87,80,77,75,73,85,68,59,30.05,29.96,4,1,7,0.48
2012-8-17,91,82,76,78,74,72,95,79,55,30.02,29.92,10,1,16,0.01
2012-8-18,82,78,75,75,74,72,94,88,77,30.00,29.88,6,0,7,0.16
2012-8-19,91,82,75,79,75,72,96,80,60,29.98,29.91,9,2,13,0.17
2012-8-20,91,82,74,79,74,72,96,77,54,30.03,29.88,13,3,17,0.80
2012-8-21,91,80,73,80,73,71,97,82,53,30.09,29.94,11,3,18,1.65
2012-8-22,91,77,72,76,72,70,98,86,57,30.08,29.99,9,2,15,0.95
2012-8-23,86,77,71,75,72,70,97,85,61,30.08,29.99,3,0,6,0.14
2012-8-24,93,82,72,76,72,68,94,73,46,30.03,29.91,7,2,11,0.00
2012-8-25,90,81,73,74,71,67,92,72,54,29.99,29.89,11,4,17,0.00
2012-8-26,84,79,75,76,74,69,93,84,75,29.96,29.77,16,7,24,0.34
2012-8-27,87,79,75,79,76,73,97,91,73,29.83,29.67,14,7,22,1.42
2012-8-28,89,82,78,79,76,74,92,81,65,29.94,29.83,13,4,23,0.14
2012-8-29,89,81,74,78,74,71,96,81,56,29.96,29.88,7,2,12,0.21
2012-8-30,93,83,75,77,74,68,95,76,45,30.09,29.94,10,1,12,0.01
2012-8-31,92,83,75,78,73,69,94,74,50,30.14,30.05,6,1,11,0.00
2012-9-1,93,83,74,77,72,67,93,71,46,30.13,30.01,8,2,13,0.00
2012-9-2,91,81,72,74,69,64,94,69,42,30.06,29.95,9,2,14,0.00
2012-9-3,92,80,69,73,69,65,93,70,42,30.04,29.94,5,1,8,0.00
2012-9-4,93,81,71,75,71,67,94,75,46,30.00,29.92,8,1,12,0.00
2012-9-5,93,81,72,76,72,69,95,77,51,29.97,29.89,6,1,11,0.00
2012-9-6,90,80,73,75,72,70,94,77,53,29.99,29.91,8,2,11,0.00
2012-9-7,91,81,72,76,72,70,94,76,54,29.97,29.88,6,1,14,0.00
2012-9-8,91,82,73,77,72,67,95,75,46,29.94,29.85,12,2,17,0.00
2012-9-9,84,80,77,77,75,72,92,84,76,29.96,29.84,8,2,14,0.15
2012-9-10,90,80,74,79,74,72,96,82,63,29.99,29.89,7,1,10,0.29
2012-9-11,90,80,73,76,72,69,95,78,55,30.09,29.96,13,3,18,0.20
2012-9-12,91,79,71,75,70,66,89,75,53,30.08,30.00,13,4,16,0.08
2012-9-13,87,78,73,75,71,69,91,79,66,30.06,29.96,11,4,15,0.08
2012-9-14,90,79,74,75,72,71,91,81,56,30.03,29.93,12,3,16,0.13
2012-9-15,88,79,74,76,72,70,94,81,61,30.03,29.94,11,2,15,0.14
2012-9-16,89,77,72,75,72,68,96,84,54,30.01,29.92,8,2,11,1.01
2012-9-17,90,79,72,76,72,70,98,83,54,29.98,29.86,7,1,12,0.34
2012-9-18,89,78,75,77,74,72,96,87,65,29.92,29.84,11,2,21,0.50
2012-9-19,89,80,73,77,73,71,97,82,58,30.01,29.87,5,1,11,0.03
2012-9-20,88,80,74,77,73,69,96,81,57,30.00,29.89,2,0,6,0.01
2012-9-21,91,79,73,74,71,69,94,78,53,29.97,29.87,9,1,13,0.03
2012-9-22,90,77,72,75,72,69,96,85,57,30.00,29.90,3,0,5,0.70
2012-9-23,91,79,70,76,69,-100,97,76,43,30.04,29.95,5,0,9,0.54
2012-9-24,85,75,69,70,63,54,90,68,37,30.07,29.97,6,1,10,0.00
2012-9-25,87,75,65,71,66,62,92,75,54,30.06,29.98,5,0,7,0.00
2012-9-26,91,77,70,74,70,66,93,80,46,30.06,29.98,5,1,7,0.36
2012-9-27,93,80,70,77,70,68,96,76,47,30.07,29.95,5,1,9,0.07
2012-9-28,91,80,71,76,71,68,95,76,47,30.01,29.88,6,1,8,0.00
2012-9-29,91,80,72,75,72,68,95,77,50,29.94,29.80,5,1,13,0.01
2012-9-30,91,80,72,76,72,69,95,80,54,29.86,29.73,6,1,9,0.01
2012-10-1,89,80,74,77,73,71,95,80,58,29.78,29.69,7,1,10,0.04
2012-10-2,85,79,75,77,74,72,96,86,72,29.98,29.76,7,1,9,0.70
2012-10-3,88,77,73,78,73,71,96,88,66,30.10,29.96,9,1,15,0.08
2012-10-4,93,77,71,78,73,69,97,87,55,30.12,30.01,11,2,14,2.30
2012-10-5,90,78,70,77,73,69,99,85,61,30.08,29.89,7,1,13,0.09
2012-10-6,88,78,72,77,72,70,97,83,60,29.94,29.80,6,1,9,0.08
2012-10-7,89,78,70,75,70,68,96,79,51,29.94,29.85,5,1,10,0.00
2012-10-8,88,78,71,76,72,68,95,84,60,29.98,29.87,5,0,6,0.00
2012-10-9,88,79,70,75,71,68,96,78,57,29.99,29.91,4,0,7,0.00
2012-10-10,88,78,69,72,69,65,93,76,51,30.05,29.96,8,2,11,0.00
2012-10-11,87,76,63,69,65,61,95,72,46,30.11,30.02,9,2,14,0.00
2012-10-12,87,75,66,67,64,60,92,70,46,30.13,30.03,9,3,11,0.00
2012-10-13,86,75,64,68,64,60,92,69,47,30.11,30.00,11,4,18,0.00
2012-10-14,89,78,67,71,68,64,92,72,49,30.06,29.91,12,3,17,0.00
2012-10-15,89,78,72,74,70,67,94,77,56,29.93,29.75,6,1,11,0.00
2012-10-16,88,76,68,72,67,62,94,75,50,29.82,29.72,6,1,8,0.00
2012-10-17,81,72,66,71,66,61,92,82,68,29.84,29.74,5,0,7,0.00
2012-10-18,90,77,68,73,69,66,96,79,52,29.83,29.73,6,1,9,0.01
2012-10-19,89,76,67,74,68,65,96,78,49,29.83,29.75,6,1,8,0.01
2012-10-20,86,75,61,71,63,54,93,68,43,29.91,29.78,7,2,9,0.00
2012-10-21,84,68,55,58,54,49,92,65,31,29.98,29.90,7,2,11,0.00
2012-10-22,85,73,62,65,61,58,90,69,43,30.01,29.90,13,3,16,0.00
2012-10-23,83,73,64,70,65,60,90,77,55,29.99,29.89,12,3,17,0.01
2012-10-24,87,76,67,72,66,62,91,72,43,29.96,29.82,15,5,19,0.01
2012-10-25,84,75,70,72,68,65,90,79,57,29.86,29.72,12,5,18,0.00
2012-10-26,87,78,71,69,66,58,89,71,39,29.75,29.56,13,6,21,0.00
2012-10-27,80,74,69,64,63,61,79,67,54,29.67,29.57,16,8,26,0.00
2012-10-28,77,71,65,67,60,52,83,69,52,29.76,29.64,15,7,21,0.00
2012-10-29,71,64,58,53,48,42,72,58,38,29.83,29.73,17,7,21,0.00
2012-10-30,69,62,57,49,46,43,65,55,39,29.91,29.78,17,7,27,0.00
2012-10-31,75,62,51,54,51,47,93,70,44,30.01,29.91,10,2,16,0.00
2012-11-1,76,65,55,65,60,53,98,84,58,29.99,29.90,8,1,13,0.03
2012-11-2,81,67,54,61,55,50,96,69,35,30.04,29.97,7,1,12,0.02
2012-11-3,85,66,52,68,58,49,95,77,44,30.08,29.98,6,0,8,0.01
2012-11-4,83,68,60,67,60,57,96,77,44,30.06,29.93,5,0,8,0.01
2012-11-5,77,68,61,69,61,57,95,81,58,29.95,29.86,6,1,8,0.01
2012-11-6,76,65,58,67,60,53,94,84,65,29.89,29.77,7,1,11,0.21
2012-11-7,71,60,50,56,51,45,90,72,49,29.94,29.80,11,3,15,0.05
2012-11-8,69,57,45,49,42,37,89,62,33,30.11,29.92,6,2,10,0.00
2012-11-9,76,58,41,50,44,38,93,65,28,30.19,30.09,6,1,9,0.00
2012-11-10,78,63,47,55,50,45,94,67,40,30.23,30.13,10,3,15,0.00
2012-11-11,81,67,54,61,56,50,93,72,43,30.21,30.12,11,3,16,0.00
2012-11-12,83,71,59,66,62,56,93,74,49,30.16,30.06,8,1,13,0.01
2012-11-13,84,72,63,68,62,59,92,75,45,30.11,30.01,6,1,9,0.01
2012-11-14,80,67,60,67,60,-100,95,82,60,30.11,30.01,7,2,9,0.00
2012-11-15,72,67,63,66,62,58,94,86,72,30.08,30.00,4,2,7,0.00
2012-11-16,68,62,57,59,57,53,90,84,69,30.11,30.01,6,2,9,0.00
2012-11-17,82,68,57,62,58,54,91,75,43,30.07,29.98,8,4,11,0.00
2012-11-18,76,66,58,61,58,54,90,78,56,30.11,30.03,8,4,12,0.00
2012-11-19,72,60,50,57,53,47,94,80,58,30.11,29.99,6,2,10,0.00
2012-11-20,75,64,57,60,56,53,92,77,55,30.03,29.90,7,2,10,0.00
2012-11-21,75,62,53,58,53,47,97,75,39,30.03,29.92,9,2,15,0.00
2012-11-22,75,59,46,52,43,35,94,63,25,30.11,30.01,9,2,14,0.01
2012-11-23,74,55,39,46,40,36,92,64,27,30.16,30.03,9,2,12,0.01
2012-11-24,77,58,46,61,51,44,96,80,53,30.05,29.95,10,2,13,0.00
2012-11-25,73,54,39,46,40,34,92,67,25,30.11,30.01,5,1,8,0.00
2012-11-26,79,59,40,60,50,37,92,75,44,30.15,30.04,4,1,7,0.00
2012-11-27,81,65,54,64,59,52,96,81,52,30.11,30.02,8,1,12,0.01
2012-11-28,78,65,56,65,59,53,100,84,52,30.19,30.05,7,2,12,0.01
2012-11-29,80,64,52,59,54,49,92,73,42,30.19,30.09,9,4,13,0.00
2012-11-30,82,66,55,59,55,52,91,71,44,30.17,30.07,10,2,15,0.00
2012-12-1,80,65,51,60,56,49,95,76,44,30.17,30.08,9,2,15,0.00
2012-12-2,82,68,59,64,59,54,97,76,39,30.20,30.09,9,2,14,0.00
2012-12-3,82,68,58,66,59,53,96,76,39,30.20,30.09,9,2,12,0.00
2012-12-4,81,67,56,59,56,47,96,72,31,30.21,30.09,9,2,10,0.00
2012-12-5,81,66,54,64,57,53,96,76,42,30.11,29.96,5,1,8,0.00
2012-12-6,81,69,62,65,59,-100,92,75,50,29.97,29.85,7,2,11,0.00
2012-12-7,81,68,59,66,61,56,95,79,53,29.94,29.83,7,1,9,0.00
2012-12-8,83,71,62,69,64,59,96,81,53,29.97,29.88,7,1,10,0.00
2012-12-9,84,70,62,70,63,58,95,80,58,30.02,29.93,6,0,9,0.01
2012-12-10,83,70,61,72,66,58,95,85,69,29.96,29.79,14,2,20,0.43
2012-12-11,79,72,68,73,69,66,96,90,75,29.96,29.82,6,1,8,0.57
2012-12-12,82,73,66,72,69,65,97,87,68,30.01,29.91,7,1,9,0.03
2012-12-13,74,66,57,68,59,52,93,79,54,30.12,29.98,9,4,15,0.02
2012-12-14,73,61,56,58,55,52,91,81,59,30.14,30.02,6,3,10,0.00
2012-12-15,79,64,54,65,58,52,95,81,57,30.07,29.96,8,1,9,0.00
2012-12-16,81,68,58,67,60,56,96,78,48,29.98,29.87,4,0,7,0.01
2012-12-17,80,69,59,67,62,57,95,80,53,29.92,29.81,8,1,13,0.01
2012-12-18,82,69,55,73,63,51,96,83,59,29.96,29.82,11,2,14,0.01
2012-12-19,79,59,44,55,47,41,94,70,27,30.04,29.96,4,0,7,0.01
2012-12-20,81,67,49,69,60,46,96,79,53,30.01,29.87,11,3,17,0.08
2012-12-21,73,59,49,69,44,36,90,61,38,30.15,29.90,14,7,20,0.19
2012-12-22,64,49,38,39,33,25,85,58,23,30.24,30.14,7,1,11,0.00
2012-12-23,71,50,32,45,37,29,93,65,28,30.20,30.08,5,0,7,0.00
2012-12-24,70,57,46,55,49,40,91,75,55,30.08,29.91,6,0,9,0.00
2012-12-25,76,63,51,60,55,48,94,76,51,29.96,29.82,3,0,8,0.00
2012-12-26,80,66,55,69,60,48,91,81,68,29.95,29.74,21,5,29,0.17
2012-12-27,66,53,43,48,44,40,91,74,46,30.04,29.93,6,1,9,0.01
2012-12-28,73,58,40,65,51,38,94,80,48,30.02,29.86,8,1,10,0.25
2012-12-29,74,67,55,71,63,47,96,87,72,30.08,29.80,11,6,15,0.29
2012-12-30,59,50,39,48,38,32,86,66,42,30.29,30.08,9,4,14,0.01
2012-12-31,76,57,42,55,48,39,93,75,46,30.27,30.10,7,1,10,0.00
2013-1-1,78,62,49,59,54,46,95,76,50,30.14,29.97,8,1,12,0.00